Location: Fischbach
(50.9698°N, 10.3481°E)
Time: 23:56:19
(UTC+00:00)

Daily predictions for brighter satellites

Satellite Brightness Start Highest point End
(mag) Time Altitude Azimuth Time Altitude Azimuth Time Altitude Azimuth
Cosmos 1892 Rocket 4.1 15:44:17 10° NNW 15:48:43 67° W 15:53:06 10° S
NOSS 2-2 (D) 3.9 15:47:57 10° S 15:50:55 29° SE 15:53:38 10° ENE
Cosmos 2369 Rocket 3.3 15:46:06 10° WSW 15:51:25 40° NW 15:56:47 10° NNE
Cosmos 2084 Rocket 3.9 15:48:15 10° NW 15:52:15 40° NE 15:56:14 10° ESE
Cosmos 1943 Rocket 4.3 15:49:51 10° NW 15:52:17 13° NNW 15:54:42 10° N
Cosmos 724 4.4 15:47:48 10° NW 15:53:50 59° NE 15:59:42 10° ESE
Thor Agena Rocket 3.7 15:49:09 10° SE 15:54:09 51° ENE 15:59:09 10° N
BlueWalker 3 2.7 15:52:14 10° WNW 15:55:46 51° SSW 15:59:18 10° SE
Cosmos 1356 Rocket 3.3 15:54:49 10° S 15:58:50 76° ESE 16:02:57 10° NNE
Meteor 1-28 Rocket 3.5 15:56:18 10° NNE 15:59:28 38° E 16:02:36 10° SSE
Cosmos 2026 Rocket 4.4 15:54:32 10° NNW 16:00:45 72° W 16:07:01 10° S
Cosmos 2278 Rocket 4.3 15:59:26 10° NW 16:01:55 13° NNW 16:04:26 10° N
Cosmos 1544 Rocket 4.0 15:59:40 10° SSE 16:03:49 42° E 16:08:00 10° NNE
Cosmos 1484 Rocket 2.5 16:00:59 10° SSE 16:04:29 86° E 16:08:01 10° NNW
Cosmos 1697 Rocket 4.1 16:01:30 10° SE 16:05:16 19° E 16:09:00 10° ENE
IRS-1C 4.5 16:00:22 10° SE 16:05:20 43° ENE 16:10:21 10° N
NOSS 2-2 (E) 3.7 16:02:32 10° SSW 16:05:35 32° SE 16:08:05 12° ENE
BREEZE M DEB (TANK) 4.4 15:48:43 10° W 16:06:38 70° SSW 16:11:02 10° ESE
Intercosmos 24 3.6 16:04:38 10° N 16:08:40 70° ENE 16:12:12 10° SSE
Cosmos 405 Rocket 2.2 16:05:34 10° NNW 16:08:51 85° ENE 16:12:04 10° SSE
Cosmos 1634 Rocket 4.0 16:03:43 10° S 16:09:54 82° E 16:16:06 10° NNE
Okean 1-7 Rocket 4.3 16:07:06 10° N 16:11:01 30° ENE 16:14:53 10° SE
Lacrosse 5 rocket 1.3 16:09:27 10° WSW 16:13:10 63° NNW 16:16:22 13° NE
Cosmos 1461 4.1 16:14:51 10° SSE 16:17:53 22° ESE 16:20:09 14° ENE
CENTAUR R/B 2.9 16:12:11 10° WSW 16:17:59 65° NW 16:25:22 10° NE
Meteor 1-20 Rocket 4.3 16:14:46 10° N 16:20:07 51° ENE 16:25:25 10° SSE
Cosmos 1455 Rocket 4.3 16:18:07 10° SW 16:22:13 42° WNW 16:26:25 10° N
Cosmos 1602 Rocket 3.6 16:18:30 10° N 16:22:49 53° ENE 16:27:06 10° SSE
Cosmos 2279 Rocket 4.0 16:18:20 10° S 16:24:30 75° E 16:30:45 10° NNE
IRIDIUM 103 4.4 16:22:54 10° N 16:28:02 54° E 16:33:08 10° SSE
SMAP 3.0 16:26:06 10° SSE 16:30:45 80° ENE 16:35:26 10° NNW
Cosmos 1656 3.7 16:26:41 10° SSW 16:32:17 74° ESE 16:37:56 10° NNE
UNK 3.8 16:27:48 10° NNE 16:32:22 60° ESE 16:36:52 10° S
YAOGAN 1 3.6 16:31:23 10° ESE 16:34:44 23° ENE 16:38:06 10° N
Cosmos 2228 3.6 16:31:38 10° SSW 16:35:48 56° WNW 16:40:00 10° N
NOSS 2-2 (C) 3.3 16:32:59 10° WSW 16:36:02 48° NW 16:38:06 17° NNE
Cosmos 1867 3.5 16:30:35 10° NW 16:36:02 67° NE 16:41:28 10° SE
Landsat 7 3.7 16:31:37 10° SSE 16:36:14 70° ENE 16:40:54 10° N
SAR-Lupe-4 3.5 16:33:01 10° SSE 16:36:32 63° ENE 16:40:04 10° N
Cosmos 1486 Rocket 4.0 16:32:11 10° S 16:37:19 64° ESE 16:42:24 11° NNE
NOSS 7 (H) 4.1 16:36:01 10° NW 16:38:53 53° NE 16:41:18 15° ESE
Cosmos 2297 Rocket 2.3 16:34:14 10° NNW 16:39:55 80° WSW 16:45:35 10° SSE
USA 290 2.3 16:36:42 10° NNW 16:39:59 78° WSW 16:43:13 10° SSE
USA 215 3.6 16:35:28 16° ENE 16:40:41 53° N 16:47:01 10° WNW
Cosmos 2180 Rocket 4.4 16:35:57 10° S 16:42:02 72° E 16:48:11 10° NNE
SAR-Lupe-1 4.0 16:42:00 10° SSE 16:45:35 70° ENE 16:49:11 10° N
Cosmos 1953 Rocket 4.3 16:41:41 10° N 16:45:38 30° ENE 16:49:34 10° SE
Cosmos 1782 2.7 16:42:36 10° SSW 16:46:11 72° W 16:49:47 10° N
IRIDIUM 106 4.2 16:41:10 10° N 16:46:24 75° E 16:51:38 10° S
ATLAS CENTAUR R/B 2.6 16:44:00 10° WNW 16:46:58 33° WSW 16:49:51 10° S
CZ-4C R/B 2.9 16:41:13 10° NW 16:48:00 90° ENE 16:56:33 10° SE
Cosmos 1607 4.2 16:43:02 10° NW 16:49:15 74° SW 16:55:31 10° SSE
Cosmos 1733 4.3 16:48:18 10° NW 16:49:28 17° W 16:50:40 10° SW
CZ-2D R/B 2.6 16:48:58 10° SSE 16:52:06 89° WSW 16:55:16 10° NNW
IRS-P3 4.0 16:49:46 10° SSE 16:55:03 74° ENE 17:00:23 10° NNW
Meteor 1-25 Rocket 4.2 16:49:38 10° N 16:55:29 74° ENE 17:01:16 10° SSE
Lacrosse 4 Rocket 3.2 16:52:44 10° W 16:56:02 23° NW 16:59:05 11° NNE
Cosmos 1825 Rocket 3.5 16:52:17 10° N 16:56:37 59° ENE 17:00:53 10° SSE
Cosmos 2219 3.8 16:51:25 10° NNW 16:56:40 35° NE 16:59:37 22° E
ARIANE 5 R/B 2.6 16:51:46 10° SSE 16:56:50 80° WSW 17:02:00 10° NNW
Cosmos 990 Rocket 4.4 16:52:35 10° S 16:57:18 39° ESE 16:59:48 24° NE
Cosmos 2266 Rocket 3.9 16:52:46 10° N 16:58:59 90° ENE 17:05:04 10° S
Cosmos 2098 Rocket 3.5 16:58:32 10° SSW 17:02:37 65° WNW 17:07:29 10° N
Meteor 1-5 Rocket 4.1 16:57:44 10° N 17:03:00 57° ENE 17:08:20 10° SSE
Cosmos 2151 3.4 17:00:05 10° NNW 17:04:12 62° W 17:08:18 10° S
Cosmos 1743 3.7 17:01:46 10° NNW 17:04:51 39° W 17:07:53 10° SSW
SPOT 1/Viking Rocket 3.5 17:01:38 10° SSE 17:06:46 65° ENE 17:11:56 10° N
Cosmos 1980 Rocket 3.1 17:02:58 10° SSE 17:07:33 26° ESE 17:08:01 26° E
Cosmos 1844 Rocket 4.1 17:06:53 10° NNW 17:10:59 20° NE 17:10:59 20° NE
SL-16 R/B 3.5 17:09:04 10° N 17:14:57 45° WNW 17:20:47 10° SW
Cosmos 2058 Rocket 4.4 17:12:27 10° SSE 17:14:42 23° SE 17:14:42 23° SE
Cosmos 2263 Rocket 2.2 17:12:43 10° NNW 17:18:21 60° NE 17:23:09 14° SE
NOSS 3-2 (C) 3.1 17:14:53 10° SW 17:19:59 80° SE 17:23:02 30° NE
NOSS 3-2 (A) 3.7 17:15:07 10° WSW 17:20:16 56° NW 17:24:05 23° NE
GEOS 3 Rocket 4.0 17:19:36 23° NE 17:22:56 65° NW 17:28:14 10° WSW
CZ-4 R/B 4.2 17:19:42 10° SSE 17:23:39 87° WSW 17:27:38 10° NNW
MOS 1 Rocket 3.9 17:19:18 10° S 17:24:08 64° W 17:29:18 10° NNW
Cosmos 1076 Rocket 3.3 17:21:40 10° N 17:26:00 76° E 17:30:17 10° SSE
BREEZE M DEB (TANK) 3.6 17:24:07 10° SW 17:25:20 24° SSW 17:25:20 24° SSW
Cosmos 1933 3.3 17:24:55 10° SSW 17:28:44 73° W 17:30:45 26° N
Cosmos 2227 Rocket 2.4 17:25:27 10° NNW 17:31:05 73° WSW 17:36:43 10° SSE
Cosmos 1538 Rocket 3.9 17:26:47 10° NNW 17:32:04 70° ENE 17:36:28 15° SE
Cosmos 1606 Rocket 3.6 17:27:49 10° SSW 17:32:13 78° W 17:35:24 19° N
PSLV R/B 3.2 17:36:04 58° SE 17:36:45 72° ENE 17:40:48 10° N
Cosmos 2369 Rocket 4.5 17:34:08 10° NW 17:37:06 14° NNW 17:40:04 10° N
CZ-2D R/B 3.5 17:33:19 10° SSE 17:37:32 82° WSW 17:41:43 10° NNW
COSMO-SKYMED 1 3.0 17:39:14 42° SSE 17:39:14 42° SSE 17:42:16 10° S
NOSS 2-2 (D) 4.4 17:37:21 10° W 17:40:03 26° NW 17:40:03 26° NW
Meteor 2-2 Rocket 4.5 17:35:37 10° SSE 17:40:36 45° ESE 17:40:36 45° ESE
SL-19 R/B 4.1 17:35:50 10° SSE 17:41:12 81° ENE 17:46:53 10° NNW
Cosmos 1244 Rocket 4.4 17:34:58 10° N 17:41:14 62° ENE 17:47:23 10° SSE
Resurs 1-3 3.4 17:37:14 10° SSE 17:41:32 88° E 17:45:53 10° NNW
Cosmos 1503 Rocket 4.4 17:37:50 10° SW 17:43:01 60° WNW 17:46:10 23° NNE
BREEZE-M DEB (TANK) 4.0 17:40:19 10° W 17:43:58 71° S 17:48:33 30° ESE
Meteor 2-20 4.3 17:41:44 10° S 17:47:53 81° E 17:54:04 10° NNE
Cosmos 1697 Rocket 2.6 17:42:53 10° SSW 17:48:29 84° WNW 17:50:45 38° NNE
Lacrosse 5 rocket 2.5 17:47:17 10° WNW 17:49:58 29° NNW 17:49:58 29° NNW
Cosmos 1354 Rocket 4.2 17:45:59 10° SSW 17:51:14 71° WNW 17:53:34 34° NNE
BREEZE-M DEB (TANK) 4.1 17:49:21 10° WNW 17:53:10 83° NNE 17:57:03 38° E
Cosmos 1461 3.2 17:50:30 10° WSW 17:54:18 54° NW 17:54:18 54° NW
Spot 4 Rocket 4.2 17:50:15 10° S 17:55:20 69° WSW 18:00:28 10° NNW
IRAS Rocket 4.2 17:50:59 10° SSE 17:56:29 80° WSW 18:02:00 10° NNW
Cosmos 1726 Rocket 4.1 17:52:56 10° SSW 17:57:32 61° WNW 17:59:49 28° N
SL-08 R/B 4.4 17:53:13 10° N 17:59:33 70° ENE 18:05:52 10° SSE
Cosmos 1655 Rocket 4.4 17:54:04 10° NNW 18:00:14 62° W 18:06:19 10° S
SKYMED 2 3.9 17:59:36 45° NNW 18:00:42 62° WNW 18:05:00 10° SSW
Gbstr 26 Del rocket 3.9 18:00:06 10° SW 18:02:39 35° SSW 18:02:39 35° SSW
Meteor 2-10 4.3 18:02:16 10° NNW 18:07:35 72° W 18:13:02 10° S
CENTAUR R/B 3.9 18:04:04 10° WNW 18:09:59 34° N 18:12:27 28° NNE
Meteor 2-20 Rocket 4.3 18:03:45 10° S 18:10:01 85° E 18:12:30 39° NNE
YAOGAN 1 3.5 18:06:14 10° S 18:10:20 47° W 18:14:28 10° NNW
USA 281 4.2 18:17:15 31° NNE 18:17:15 31° NNE 18:21:23 10° NNW
Cosmos 2082 3.6 18:11:25 10° NNW 18:17:04 85° NNE 18:17:04 85° NNE
Meteor 1-26 Rocket 4.3 18:13:36 10° S 18:18:03 62° S 18:18:03 62° S
USA 238 DEB 3.4 18:14:02 10° SSW 18:19:57 70° SE 18:19:57 70° SE
USA 238 3.4 18:14:08 10° SSW 18:20:01 69° SE 18:20:01 69° SE
Resurs 01 Rocket 4.2 18:25:01 11° NNW 18:25:01 11° NNW 18:25:14 10° NNW
USA 215 3.1 18:22:49 68° NE 18:23:19 70° NNE 18:29:51 10° WNW
Aureole 1 Rocket 4.4 18:24:44 10° SSW 18:27:16 36° SW 18:27:16 36° SW
Cosmos 2219 3.8 18:35:29 10° NW 18:41:05 55° WSW 18:41:35 53° SW
Cosmos 1980 Rocket 2.9 18:45:30 10° SW 18:49:48 49° WSW 18:49:48 49° WSW
Cosmos 1844 Rocket 4.3 18:50:14 10° NNW 18:52:38 26° NNW 18:52:38 26° NNW
Cosmos 2263 Rocket 4.0 18:57:09 10° NW 19:01:54 28° WSW 19:04:59 17° SSW
CENTAUR R/B 4.5 19:56:01 10° NW 19:59:34 27° NNW 19:59:34 27° NNW
